Location: Copeville
(33.0796°N, 96.4155°W)
Time: 23:58:48
(UTC+00:00)

SEEDS - Pass Details

Date: 04 April 2023
Orbit: 568 x 587 km, 97.7° (Epoch: 27 May)

Event Time Altitude Azimuth Distance (km) Brightness Sun altitude
Rises 09:39:44 0° 25° (NNE) 2,827 ? -30.5°
Reaches altitude 10° 09:42:09 10° 37° (NE) 1,921 ? -30.0°
Maximum altitude 09:45:45 28° 97° (E) 1,118 ? -29.4°
Enters shadow 09:46:12 27° 109° (ESE) 1,134 ? -29.3°
